• In Lithuania
  • List of Countries
  • For 7 days
  • Water Temperature
  • Satellite Maps
  • Weather Map
  • Weather Widgets
  • user-avatar
    Login

    Hourly Weather Casper

    Today, 12 December, Tuesday

    Time Temperature Precipitation Wind Pressure Humidity
    00:00 -2°C° 0 mm 6 mps 636 mmHg 49%
    01:00 -1°C° 0 mm 5 mps 635 mmHg 49%
    02:00 -2°C° 0 mm 5 mps 635 mmHg 48%
    03:00 -2°C° 0 mm 5 mps 634 mmHg 48%
    04:00 -2°C° 0 mm 5 mps 634 mmHg 48%
    05:00 -2°C° 0 mm 6 mps 634 mmHg 43%
    06:00 -2°C° 0 mm 6 mps 634 mmHg 44%
    07:00 -2°C° 0 mm 6 mps 633 mmHg 45%
    08:00 -2°C° 0 mm 6 mps 633 mmHg 46%
    09:00 -1°C° 0 mm 6 mps 633 mmHg 45%
    10:00 +2°C° 0 mm 6 mps 633 mmHg 44%
    11:00 +3°C° 0 mm 6 mps 633 mmHg 42%
    12:00 +4°C° 0 mm 6 mps 633 mmHg 43%
    13:00 +4°C° 0 mm 6 mps 632 mmHg 44%
    14:00 +5°C° 0 mm 6 mps 632 mmHg 44%
    15:00 +4°C° 0 mm 6 mps 631 mmHg 46%
    16:00 +2°C° 0 mm 6 mps 630 mmHg 48%
    17:00 +1°C° 0 mm 6 mps 629 mmHg 50%
    18:00 +1°C° 0 mm 5 mps 629 mmHg 49%
    19:00 0°C° 0 mm 5 mps 629 mmHg 49%
    20:00 0°C° 0 mm 5 mps 629 mmHg 48%
    21:00 0°C° 0 mm 4 mps 629 mmHg 47%
    22:00 -1°C° 0 mm 4 mps 629 mmHg 46%
    23:00 0°C° 0 mm 3 mps 629 mmHg 45%

    Tomorrow, 13 December, Wednesday

    Time Temperature Precipitation Wind Pressure Humidity
    00:00 0°C° 0 mm 3 mps 630 mmHg 45%
    01:00 0°C° 0 mm 3 mps 630 mmHg 44%
    02:00 0°C° 0 mm 3 mps 630 mmHg 44%
    03:00 0°C° 0 mm 3 mps 630 mmHg 45%
    04:00 -1°C° 0 mm 2 mps 630 mmHg 46%
    05:00 -1°C° 0 mm 2 mps 630 mmHg 47%
    06:00 -1°C° 0 mm 2 mps 630 mmHg 48%
    07:00 -1°C° 0 mm 2 mps 631 mmHg 48%
    08:00 -1°C° 0 mm 2 mps 631 mmHg 49%
    09:00 +1°C° 0 mm 2 mps 631 mmHg 47%
    10:00 +2°C° 0 mm 2 mps 631 mmHg 45%
    11:00 +2°C° 0 mm 3 mps 631 mmHg 43%
    12:00 +3°C° 0 mm 3 mps 631 mmHg 44%
    13:00 +3°C° 0 mm 3 mps 631 mmHg 45%
    14:00 +3°C° 0 mm 3 mps 630 mmHg 46%
    15:00 +2°C° 0.1 mm 3 mps 630 mmHg 53%
    16:00 +1°C° 0.1 mm 3 mps 631 mmHg 60%
    17:00 +1°C° 0.1 mm 2 mps 631 mmHg 67%
    18:00 -1°C° 0.1 mm 2 mps 631 mmHg 69%
    19:00 -1°C° 0.1 mm 2 mps 631 mmHg 71%
    20:00 -1°C° 0.1 mm 2 mps 631 mmHg 73%
    21:00 -1°C° 0.1 mm 3 mps 632 mmHg 74%
    22:00 -2°C° 0.1 mm 3 mps 632 mmHg 75%
    23:00 -2°C° 0.1 mm 3 mps 632 mmHg 76%

    Day after tomorrow, 14 December, Thursday

    Time Temperature Precipitation Wind Pressure Humidity
    00:00 -2°C° 0 mm 3 mps 632 mmHg 77%
    01:00 -2°C° 0 mm 3 mps 632 mmHg 78%
    02:00 -3°C° 0 mm 4 mps 632 mmHg 80%
    03:00 -3°C° 0 mm 4 mps 632 mmHg 79%
    04:00 -4°C° 0 mm 5 mps 632 mmHg 79%
    05:00 -5°C° 0 mm 5 mps 631 mmHg 78%
    06:00 -5°C° 0 mm 5 mps 632 mmHg 77%
    07:00 -5°C° 0 mm 5 mps 632 mmHg 76%
    08:00 -5°C° 0 mm 5 mps 632 mmHg 74%
    09:00 -4°C° 0.1 mm 7 mps 633 mmHg 70%
    10:00 -4°C° 0.1 mm 8 mps 633 mmHg 65%
    11:00 -3°C° 0.1 mm 9 mps 634 mmHg 60%
    12:00 -3°C° 0.1 mm 9 mps 633 mmHg 58%
    13:00 -2°C° 0.1 mm 8 mps 633 mmHg 57%
    14:00 -2°C° 0.1 mm 8 mps 633 mmHg 55%
    15:00 -3°C° 0 mm 6 mps 633 mmHg 60%
    16:00 -3°C° 0 mm 4 mps 633 mmHg 65%
    17:00 -3°C° 0 mm 2 mps 633 mmHg 70%
    18:00 -5°C° 0 mm 3 mps 633 mmHg 71%
    19:00 -5°C° 0 mm 3 mps 633 mmHg 72%
    20:00 -5°C° 0 mm 3 mps 633 mmHg 73%
    21:00 -5°C° 0 mm 4 mps 632 mmHg 70%
    22:00 -6°C° 0 mm 5 mps 632 mmHg 67%
    23:00 -5°C° 0 mm 5 mps 632 mmHg 64%

    15 December, Friday

    Time Temperature Precipitation Wind Pressure Humidity
    00:00 -5°C° 0 mm 5 mps 631 mmHg 62%
    01:00 -5°C° 0 mm 5 mps 630 mmHg 59%
    02:00 -5°C° 0 mm 5 mps 630 mmHg 57%
    03:00 -5°C° 0 mm 5 mps 629 mmHg 59%
    04:00 -5°C° 0 mm 6 mps 629 mmHg 60%
    05:00 -5°C° 0 mm 6 mps 628 mmHg 62%
    06:00 -5°C° 0 mm 6 mps 628 mmHg 62%
    07:00 -5°C° 0 mm 6 mps 628 mmHg 62%
    08:00 -5°C° 0 mm 6 mps 628 mmHg 62%
    09:00 -3°C° 0 mm 7 mps 628 mmHg 58%
    10:00 -2°C° 0 mm 7 mps 628 mmHg 53%
    11:00 -1°C° 0 mm 8 mps 628 mmHg 49%
    12:00 0°C° 0 mm 8 mps 627 mmHg 48%
    13:00 +1°C° 0 mm 8 mps 626 mmHg 47%
    14:00 +1°C° 0 mm 9 mps 625 mmHg 46%
    15:00 +1°C° 0 mm 8 mps 625 mmHg 47%
    16:00 0°C° 0 mm 8 mps 624 mmHg 48%
    17:00 -1°C° 0 mm 8 mps 624 mmHg 49%
    18:00 -1°C° 0 mm 8 mps 624 mmHg 48%
    19:00 -1°C° 0 mm 7 mps 623 mmHg 48%
    20:00 -1°C° 0 mm 7 mps 623 mmHg 47%
    21:00 -1°C° 0 mm 7 mps 623 mmHg 47%
    22:00 -1°C° 0 mm 7 mps 623 mmHg 48%
    23:00 -1°C° 0 mm 6 mps 623 mmHg 48%

    16 December, Saturday

    Time Temperature Precipitation Wind Pressure Humidity
    00:00 -1°C° 0.2 mm 6 mps 623 mmHg 50%
    01:00 -1°C° 0.2 mm 6 mps 623 mmHg 53%
    02:00 0°C° 0.2 mm 5 mps 623 mmHg 55%
    03:00 -1°C° 0.7 mm 4 mps 623 mmHg 67%
    04:00 -2°C° 0.7 mm 4 mps 623 mmHg 79%
    05:00 -1°C° 0.7 mm 3 mps 623 mmHg 91%
    06:00 -1°C° 0.7 mm 3 mps 624 mmHg 90%
    07:00 -2°C° 0.7 mm 3 mps 624 mmHg 89%
    08:00 -2°C° 0.7 mm 3 mps 625 mmHg 87%
    09:00 -3°C° 0.6 mm 4 mps 625 mmHg 86%
    10:00 -3°C° 0.6 mm 4 mps 625 mmHg 84%
    11:00 -3°C° 0.6 mm 4 mps 626 mmHg 83%
    12:00 -3°C° 0.2 mm 4 mps 625 mmHg 83%
    13:00 -2°C° 0.2 mm 3 mps 625 mmHg 82%
    14:00 -2°C° 0.2 mm 3 mps 625 mmHg 81%
    15:00 -3°C° 0.1 mm 2 mps 625 mmHg 82%
    16:00 -3°C° 0.1 mm 2 mps 625 mmHg 83%
    17:00 -4°C° 0.1 mm 2 mps 626 mmHg 84%
    18:00 -5°C° 0 mm 2 mps 626 mmHg 81%
    19:00 -5°C° 0 mm 2 mps 626 mmHg 78%
    20:00 -7°C° 0 mm 3 mps 627 mmHg 76%
    21:00 -6°C° 0 mm 2 mps 627 mmHg 77%
    22:00 -6°C° 0 mm 2 mps 628 mmHg 78%
    23:00 -6°C° 0 mm 1 mps 628 mmHg 78%

    17 December, Sunday

    Time Temperature Precipitation Wind Pressure Humidity
    00:00 -7°C° 0 mm 2 mps 628 mmHg 78%
    01:00 -7°C° 0 mm 2 mps 628 mmHg 78%
    02:00 -9°C° 0 mm 3 mps 628 mmHg 77%
    03:00 -9°C° 0 mm 3 mps 628 mmHg 77%
    04:00 -9°C° 0 mm 3 mps 628 mmHg 77%
    05:00 -10°C° 0 mm 3 mps 628 mmHg 77%
    06:00 -11°C° 0 mm 4 mps 629 mmHg 77%
    07:00 -11°C° 0 mm 4 mps 629 mmHg 78%
    08:00 -11°C° 0 mm 4 mps 629 mmHg 78%
    09:00 -9°C° 0 mm 4 mps 629 mmHg 74%
    10:00 -8°C° 0 mm 5 mps 629 mmHg 70%
    11:00 -6°C° 0 mm 5 mps 630 mmHg 66%
    12:00 -6°C° 0 mm 5 mps 629 mmHg 65%
    13:00 -5°C° 0 mm 6 mps 629 mmHg 65%
    14:00 -5°C° 0 mm 6 mps 628 mmHg 64%
    15:00 -6°C° 0 mm 5 mps 628 mmHg 66%
    16:00 -7°C° 0 mm 5 mps 628 mmHg 68%
    17:00 -8°C° 0 mm 5 mps 628 mmHg 70%
    18:00 -8°C° 0 mm 5 mps 628 mmHg 70%
    19:00 -8°C° 0 mm 5 mps 628 mmHg 69%
    20:00 -8°C° 0 mm 5 mps 628 mmHg 69%
    21:00 -8°C° 0 mm 5 mps 628 mmHg 69%
    22:00 -8°C° 0 mm 5 mps 628 mmHg 69%
    23:00 -8°C° 0 mm 5 mps 628 mmHg 69%
    Show more